Temp
62 62 62 62 62 62 62 63 62 62 62 62 62 62 62 62 61 65 70 81 79 78 81 83 84 85 85 82 80 78 69 65 67 69 69 77 74 79 81 78 79 79 80 82 80
62 62 62 62 62 62 62 62 62 62 61 61 61 62 62 62 61 66 80 78 78 79 84 83 80 83 81 79 78 71 68 65 69 69 67 76 77 76 76 76 74 75 79 80 80
62 62 61 62 62 62 62 62 62 62 61 61 61 62 62 63 66 79 80 78 79 80 85 86 85 83 77 79 76 68 65 67 66 69 68 71 76 80 76 73 76 75 75 78 79
61 61 61 61 61 62 62 61 61 61 61 61 61 62 62 62 69 81 80 78 79 82 84 84 82 77 75 74 77 70 72 72 67 70 68 70 77 76 75 79 83 81 80 79 78
61 61 61 60 61 61 61 61 60 60 60 61 62 62 64 70 76 82 79 80 81 83 82 80 79 78 74 75 76 72 72 71 72 72 70 74 75 73 76 79 82 80 79 79 80
60 60 60 60 60 61 61 60 59 60 60 61 62 63 66 71 83 81 81 82 83 83 80 82 80 82 77 76 74 75 74 71 71 70 72 71 75 75 79 82 76 78 78 80 80
60 60 60 60 60 60 60 59 58 59 60 61 62 64 67 75 81 82 83 81 82 83 79 81 83 81 79 76 79 76 66 69 68 70 68 73 70 70 80 80 74 78 78 80 81
60 60 60 60 60 59 58 56 56 59 60 61 63 64 70 80 82 81 82 80 81 82 83 83 84 81 79 79 75 71 71 63 65 68 66 70 59 70 78 78 73 78 77 78 80
59 59 59 59 59 58 56 56 59 60 62 63 64 66 75 80 79 82 84 81 80 80 82 85 84 78 78 74 69 67 63 61 61 67 66 66 61 69 73 77 77 77 78 79 79
59 59 59 58 57 56 55 57 62 63 64 66 67 67 79 78 83 80 82 83 80 79 79 78 77 74 73 73 61 62 61 62 61 63 66 61 61 63 68 76 77 76 77 79 80
59 58 58 58 57 55 57 65 71 70 67 71 72 72 77 84 84 81 82 82 82 77 71 72 71 67 70 72 71 68 65 63 63 65 62 61 60 62 65 72 73 72 72 79 80
58 58 58 57 56 55 59 75 72 73 66 72 70 72 77 79 77 79 85 77 75 69 71 70 67 72 73 72 70 68 65 62 61 63 63 61 61 62 61 68 72 70 70 79 81
58 58 57 56 55 61 66 73 73 75 67 72 74 74 77 79 77 78 83 78 73 69 69 67 70 72 72 69 67 66 67 62 61 61 63 62 60 59 61 64 70 70 78 80 81
58 57 56 53 62 64 72 72 73 72 67 70 74 78 78 78 75 83 84 81 74 69 69 70 72 71 70 69 70 63 71 66 60 59 56 61 55 58 61 61 68 72 76 79 82
58 57 55 54 62 68 73 70 72 73 53 73 75 85 79 77 78 78 84 81 72 71 71 68 70 69 67 70 73 67 70 67 63 59 58 56 54 60 62 58 66 70 76 79 81
57 56 55 56 57 68 70 70 74 64 52 68 75 74 74 75 76 78 79 82 78 72 71 71 75 74 72 70 73 70 65 63 61 59 52 60 58 61 59 60 67 72 76 80 81
56 54 54 59 71 67 69 75 63 56 68 66 68 71 71 69 71 73 72 71 68 62 62 68 70 71 72 67 70 67 65 55 51 50 52 59 56 62 68 69 72 71 74 78 81
54 52 55 58 63 66 73 70 53 62 64 70 69 69 67 69 68 69 68 67 69 68 65 61 59 67 72 70 66 66 67 60 49 51 54 58 53 65 73 76 72 73 74 76 79
52 60 60 64 61 65 73 59 61 64 68 68 69 65 65 68 68 67 65 66 68 70 63 61 61 71 71 71 72 64 61 70 59 57 54 58 63 71 73 72 69 68 73 73 73
56 61 67 64 64 72 68 54 63 68 70 70 63 66 62 65 65 65 64 68 68 70 71 66 59 69 71 73 71 69 71 58 58 50 50 58 57 61 65 67 68 68 70 75 74
61 66 67 66 67 71 62 62 65 71 71 69 66 65 65 63 64 62 63 68 70 70 71 68 64 66 68 67 67 66 65 64 62 61 56 53 62 69 68 70 66 68 72 75 73
59 64 68 67 66 59 63 63 59 71 73 72 70 69 65 63 63 63 63 66 70 71 67 68 66 61 65 72 71 71 69 70 62 56 61 59 62 69 69 73 71 71 72 73 71
56 58 69 68 61 61 61 65 68 70 71 70 70 71 67 65 61 63 64 69 68 70 67 68 63 58 62 66 68 66 66 65 65 65 61 59 64 72 71 71 72 72 74 76 75
56 59 64 66 63 64 63 65 65 71 71 71 69 69 65 62 62 61 63 67 67 69 66 68 64 60 57 60 63 60 62 64 62 62 65 65 66 68 65 66 68 71 75 75 75
55 57 57 59 61 64 65 64 64 65 71 71 66 69 67 61 61 61 63 66 67 66 67 68 60 61 63 63 64 61 61 61 60 60 59 64 61 63 63 64 68 69 70 71 70
55 56 59 59 58 61 57 62 64 66 67 67 66 70 67 64 66 64 65 62 65 67 65 65 61 60 58 64 64 59 60 61 59 59 61 61 61 64 64 67 68 69 69 70 69
56 57 56 54 58 59 61 64 65 66 69 72 71 67 65 68 70 70 70 68 67 65 63 61 61 58 55 61 59 53 57 60 61 63 61 60 63 64 61 63 64 68 70 70 70
MSLP
1018.42 1018.11 1017.86 1017.55 1017.34 1017.07 1016.78 1016.53 1016.32 1016.16 1015.99 1015.75 1015.52 1015.34 1015.11 1014.82 1014.35 1013.98 1012.65 1010.92 1010.86 1010.79 1010.80 1010.84 1010.82 1010.63 1010.44 1010.38 1010.74 1011.02 1011.16 1011.50 1011.79 1011.85 1011.94 1011.84 1011.88 1012.23 1012.31 1012.52 1012.86 1013.31 1013.50 1014.26 1015.56
1018.34 1018.06 1017.80 1017.56 1017.24 1016.96 1016.66 1016.38 1016.18 1016.02 1015.87 1015.66 1015.40 1015.15 1014.95 1014.72 1014.17 1012.71 1010.66 1010.58 1010.68 1010.74 1010.64 1010.46 1010.46 1010.50 1010.38 1010.61 1010.84 1011.16 1011.41 1012.11 1012.91 1012.92 1012.98 1012.39 1012.14 1012.33 1012.46 1012.57 1013.19 1013.71 1014.38 1014.93 1015.62
1018.36 1018.07 1017.78 1017.49 1017.16 1016.88 1016.61 1016.30 1016.06 1015.90 1015.74 1015.56 1015.32 1015.06 1014.80 1014.53 1013.39 1010.89 1010.18 1010.50 1010.70 1010.84 1010.65 1010.41 1010.36 1010.30 1010.36 1010.71 1011.06 1011.49 1011.66 1012.65 1013.12 1013.44 1013.64 1013.08 1012.44 1012.40 1012.44 1012.38 1012.64 1013.14 1014.34 1014.98 1015.49
1018.29 1018.03 1017.70 1017.37 1017.06 1016.76 1016.52 1016.26 1016.00 1015.77 1015.59 1015.37 1015.12 1014.85 1014.56 1014.21 1012.34 1010.38 1009.94 1010.37 1010.82 1010.86 1010.76 1010.44 1010.33 1010.22 1010.32 1010.40 1010.82 1011.16 1011.98 1012.30 1013.00 1013.38 1013.70 1013.23 1012.59 1012.36 1012.64 1011.96 1012.34 1013.31 1014.13 1014.84 1015.26
1018.23 1017.96 1017.62 1017.25 1016.93 1016.64 1016.36 1016.06 1015.86 1015.66 1015.47 1015.26 1014.98 1014.65 1014.28 1013.10 1011.11 1010.38 1010.21 1010.50 1010.86 1010.89 1010.75 1010.56 1010.28 1010.26 1010.20 1010.52 1010.72 1011.06 1012.07 1012.72 1013.00 1013.42 1013.51 1013.48 1012.73 1012.67 1012.54 1012.42 1012.83 1013.83 1014.60 1014.89 1015.17
1018.20 1017.83 1017.48 1017.16 1016.87 1016.52 1016.14 1015.83 1015.62 1015.45 1015.30 1015.12 1014.86 1014.63 1013.86 1012.05 1010.57 1010.56 1010.62 1010.73 1010.79 1010.82 1010.89 1010.69 1010.38 1010.27 1010.37 1010.48 1010.69 1011.19 1011.96 1012.80 1013.21 1013.49 1013.70 1013.34 1012.74 1012.67 1012.65 1012.79 1013.43 1013.94 1014.43 1014.79 1014.97
1018.11 1017.68 1017.33 1016.99 1016.67 1016.32 1015.88 1015.62 1015.34 1015.12 1015.04 1014.97 1014.76 1014.45 1013.28 1011.38 1010.71 1010.78 1010.76 1010.82 1010.92 1010.86 1010.84 1010.94 1010.67 1010.40 1010.43 1010.36 1010.79 1011.22 1012.09 1012.88 1013.50 1013.61 1013.64 1013.43 1012.89 1012.67 1012.68 1013.13 1013.60 1013.96 1014.50 1014.68 1014.82
1018.05 1017.59 1017.17 1016.77 1016.33 1015.92 1015.56 1015.29 1014.99 1014.75 1014.78 1014.82 1014.68 1014.23 1012.04 1010.72 1010.81 1010.89 1010.91 1011.00 1011.09 1011.08 1011.00 1010.99 1010.84 1010.56 1010.47 1010.69 1010.90 1011.10 1011.66 1012.44 1013.62 1013.78 1014.10 1013.60 1013.36 1013.20 1013.48 1013.32 1013.60 1013.85 1014.40 1014.66 1014.70
1018.05 1017.58 1017.04 1016.56 1016.02 1015.67 1015.32 1014.76 1014.36 1014.46 1014.61 1014.60 1014.48 1013.62 1011.12 1010.54 1010.54 1010.42 1010.58 1010.58 1011.00 1011.16 1011.08 1010.90 1010.70 1010.60 1010.72 1010.45 1010.78 1011.38 1011.59 1012.50 1013.52 1013.93 1013.85 1013.91 1014.01 1014.01 1014.22 1013.60 1013.44 1013.66 1014.06 1014.31 1014.65
1017.91 1017.43 1016.93 1016.35 1015.78 1015.47 1015.12 1014.70 1014.44 1014.39 1014.57 1014.41 1013.97 1013.34 1010.76 1010.14 1009.79 1010.28 1010.59 1010.57 1010.62 1010.92 1010.88 1010.75 1010.70 1010.61 1010.86 1010.49 1010.30 1011.02 1011.74 1012.50 1013.00 1014.04 1014.02 1014.28 1014.13 1014.32 1014.50 1013.64 1013.40 1013.61 1013.82 1013.99 1014.18
1017.83 1017.28 1016.72 1016.13 1015.48 1015.20 1014.82 1014.62 1014.60 1014.17 1013.65 1012.86 1012.40 1011.65 1010.43 1009.84 1009.74 1009.95 1010.27 1010.32 1010.41 1010.66 1010.48 1010.88 1010.40 1010.20 1010.42 1010.49 1010.70 1011.03 1011.64 1012.29 1013.34 1014.15 1014.52 1014.67 1014.48 1014.08 1014.69 1014.26 1013.89 1013.94 1014.01 1013.70 1013.69
1017.76 1017.19 1016.62 1016.01 1015.34 1014.96 1014.76 1013.78 1013.89 1013.83 1012.91 1011.76 1011.58 1011.07 1010.30 1010.02 1009.58 1009.78 1010.00 1009.94 1010.15 1010.23 1010.57 1010.70 1010.20 1010.38 1010.54 1010.68 1010.79 1011.05 1011.51 1012.37 1013.57 1014.27 1014.66 1014.77 1014.58 1014.67 1014.43 1014.35 1013.83 1013.72 1013.81 1013.55 1013.70
1017.66 1017.08 1016.52 1015.84 1015.16 1014.78 1014.48 1013.69 1013.55 1013.33 1012.70 1011.12 1010.55 1010.08 1009.72 1009.75 1009.30 1009.34 1009.61 1009.64 1009.82 1010.11 1010.20 1010.07 1010.22 1010.43 1010.46 1010.60 1010.76 1011.05 1011.22 1012.10 1012.91 1014.16 1014.57 1014.48 1014.23 1014.45 1014.31 1014.14 1013.97 1013.74 1013.42 1013.04 1013.08
1017.56 1017.00 1016.58 1015.88 1015.39 1014.95 1013.93 1013.51 1013.46 1013.34 1012.03 1010.68 1009.69 1009.22 1009.46 1009.30 1009.17 1009.14 1009.27 1009.23 1009.60 1009.86 1010.18 1010.09 1010.31 1010.23 1010.24 1010.24 1010.55 1010.71 1011.01 1012.07 1013.00 1013.74 1013.98 1014.46 1013.46 1013.38 1013.32 1012.96 1013.23 1012.88 1012.50 1012.38 1012.37
1017.38 1016.94 1016.64 1016.37 1015.66 1014.59 1013.71 1013.52 1013.25 1013.00 1011.24 1009.98 1009.00 1008.74 1008.97 1009.08 1008.97 1009.06 1009.09 1009.04 1009.25 1009.67 1010.16 1009.92 1009.95 1009.95 1009.92 1009.88 1010.28 1010.64 1011.19 1011.90 1012.79 1013.44 1013.62 1013.76 1013.68 1011.78 1012.11 1012.27 1011.69 1011.59 1011.42 1011.54 1011.78
1017.17 1016.81 1016.53 1016.20 1015.75 1013.71 1013.49 1013.31 1012.88 1012.19 1010.47 1009.36 1008.78 1008.64 1008.73 1008.82 1008.80 1009.00 1009.00 1009.07 1009.55 1009.70 1009.96 1009.72 1009.92 1009.82 1009.71 1010.17 1010.28 1011.15 1011.71 1012.34 1012.96 1013.05 1012.75 1012.03 1012.26 1010.26 1010.39 1009.70 1009.52 1010.10 1010.08 1010.24 1010.86
1016.65 1016.33 1016.44 1015.74 1014.21 1013.64 1013.44 1012.85 1012.18 1010.97 1010.27 1009.42 1008.96 1008.81 1008.80 1008.86 1008.91 1008.92 1008.99 1009.22 1009.42 1009.53 1009.53 1009.54 1009.44 1009.69 1009.81 1010.05 1010.70 1010.80 1010.99 1011.46 1012.04 1012.13 1011.48 1011.70 1011.51 1008.72 1008.43 1008.44 1008.33 1008.94 1009.58 1009.78 1009.92
1015.89 1015.33 1014.98 1014.54 1013.96 1013.57 1013.04 1012.43 1011.35 1010.38 1009.81 1009.47 1009.18 1009.05 1008.98 1009.15 1009.31 1009.27 1009.33 1009.33 1009.68 1009.54 1009.53 1009.29 1009.13 1009.26 1009.36 1009.35 1009.40 1010.17 1010.28 1010.09 1010.20 1010.58 1010.83 1011.27 1009.69 1007.34 1007.26 1007.34 1008.12 1008.68 1009.11 1009.57 1009.35
1015.17 1014.71 1014.44 1013.64 1013.82 1013.66 1012.52 1011.75 1010.44 1009.94 1009.56 1009.27 1009.13 1009.02 1009.14 1009.29 1009.34 1009.42 1009.64 1009.48 1009.54 1009.64 1009.62 1009.42 1008.94 1008.95 1009.11 1009.26 1009.45 1010.02 1010.13 1009.89 1010.03 1010.50 1010.04 1009.36 1008.22 1006.99 1006.90 1007.18 1007.97 1008.37 1008.82 1008.91 1009.30
1015.22 1014.34 1013.56 1013.38 1013.50 1012.99 1012.11 1011.39 1010.54 1009.98 1009.49 1009.29 1009.04 1009.27 1009.27 1009.47 1009.58 1009.58 1009.76 1009.89 1009.82 1010.00 1010.05 1009.68 1009.18 1008.82 1008.84 1009.16 1009.55 1009.36 1009.62 1010.21 1010.19 1009.54 1008.76 1008.06 1007.67 1006.85 1006.60 1006.84 1007.38 1007.89 1008.04 1008.60 1009.29
1014.98 1013.96 1013.39 1013.38 1013.43 1012.40 1011.53 1011.05 1010.37 1009.68 1009.50 1009.24 1009.17 1009.38 1009.56 1009.76 1009.93 1010.00 1010.09 1010.14 1010.14 1010.11 1010.08 1009.96 1009.73 1008.95 1009.04 1008.58 1008.32 1009.22 1009.20 1009.48 1009.54 1009.18 1008.20 1007.54 1006.54 1006.81 1006.48 1006.48 1006.88 1007.66 1007.71 1008.34 1009.12
1015.15 1013.98 1013.52 1013.67 1012.92 1012.66 1011.51 1010.93 1010.34 1009.42 1009.20 1009.08 1009.20 1009.41 1009.75 1010.18 1010.22 1010.24 1010.22 1010.25 1010.43 1010.35 1010.06 1010.34 1009.82 1008.78 1008.38 1008.40 1008.74 1008.52 1008.41 1008.56 1008.24 1008.81 1008.31 1007.80 1006.79 1006.74 1006.60 1006.25 1007.06 1007.36 1007.72 1008.06 1008.81
1015.76 1014.55 1013.53 1013.29 1012.34 1011.98 1011.47 1010.70 1010.07 1009.37 1008.98 1008.92 1008.98 1009.34 1009.99 1010.22 1010.59 1010.58 1010.52 1010.60 1010.74 1010.52 1010.42 1010.56 1010.06 1009.08 1008.26 1008.88 1009.05 1008.73 1009.20 1009.36 1009.02 1008.44 1007.64 1007.34 1006.46 1007.03 1006.86 1007.04 1007.36 1007.65 1008.15 1008.40 1009.02
1016.20 1014.77 1013.59 1013.00 1012.48 1011.47 1010.94 1010.26 1009.75 1009.32 1009.03 1008.86 1009.02 1009.43 1010.00 1010.44 1010.80 1010.75 1010.69 1010.63 1010.86 1010.76 1010.82 1010.68 1010.18 1009.76 1009.00 1009.08 1009.60 1009.37 1009.47 1009.62 1009.62 1008.51 1007.50 1007.17 1006.87 1007.37 1007.80 1007.90 1007.91 1008.06 1008.57 1008.77 1009.22
1016.33 1014.92 1014.36 1012.98 1012.17 1011.38 1010.79 1010.25 1009.62 1009.18 1008.99 1008.93 1009.14 1009.10 1009.49 1010.06 1010.55 1010.61 1010.77 1010.67 1010.79 1010.95 1010.92 1010.71 1010.09 1010.12 1009.88 1009.88 1009.68 1010.02 1009.87 1009.91 1009.69 1009.66 1008.86 1008.05 1008.34 1008.73 1008.96 1008.81 1008.60 1008.62 1008.84 1009.12 1009.25
1016.42 1015.49 1014.52 1013.30 1012.33 1011.47 1010.81 1010.05 1009.48 1009.18 1008.99 1008.70 1008.70 1008.81 1009.41 1009.58 1009.72 1009.93 1010.43 1010.85 1010.64 1010.99 1010.94 1011.09 1010.45 1010.57 1010.25 1010.15 1009.83 1010.30 1010.53 1010.23 1010.39 1010.08 1009.46 1009.31 1009.08 1009.83 1010.02 1009.52 1009.26 1009.16 1009.48 1009.64 1009.78
1016.72 1016.06 1015.42 1013.49 1012.34 1011.52 1010.40 1009.66 1009.27 1009.32 1008.54 1008.22 1008.22 1008.77 1009.36 1009.46 1009.87 1010.31 1010.60 1010.83 1011.04 1011.13 1011.16 1011.34 1011.10 1010.89 1010.40 1010.48 1010.66 1010.68 1010.75 1010.53 1010.64 1010.40 1010.08 1009.33 1010.01 1010.44 1010.47 1010.27 1010.22 1009.86 1010.09 1010.09 1010.30
Wind_Speed
9 9 10 10 10 10 10 10 10 10 10 10 11 11 12 13 13 3 5 3 3 4 5 7 2 3 1 2 2 0 1 4 4 7 3 9 5 5 3 12 4 3 8 12 16
10 10 9 9 10 10 10 10 9 10 10 10 11 11 11 12 3 6 7 4 4 6 5 7 7 6 3 2 2 3 1 4 7 8 6 4 10 7 7 10 5 11 13 17 15
10 10 10 10 10 10 10 10 10 10 10 11 10 11 11 9 3 2 2 9 7 4 2 3 6 2 2 1 3 4 2 7 6 8 6 4 5 6 13 8 7 21 19 17 15
11 10 11 11 11 11 11 11 11 10 10 10 10 10 11 2 4 2 8 10 9 4 2 5 4 3 2 1 2 2 7 6 8 8 3 6 2 5 11 2 12 20 20 17 16
12 12 12 12 12 12 11 11 10 11 11 10 10 9 3 2 2 5 9 12 7 3 3 3 6 3 3 0 2 2 7 4 6 10 10 10 7 1 8 10 18 17 17 16 14
14 13 13 13 12 12 12 12 11 10 9 9 8 8 2 2 2 4 9 7 6 4 3 2 3 2 3 1 0 3 10 9 5 8 6 7 6 3 10 16 17 19 17 16 16
15 15 15 15 14 13 14 13 13 10 8 6 5 3 1 1 3 5 3 3 2 3 4 2 2 2 1 1 4 11 9 8 4 6 4 5 4 6 12 17 17 18 16 15 15
16 16 16 16 16 15 16 15 12 9 5 4 2 1 4 2 4 2 3 4 3 1 1 1 3 2 1 1 3 2 2 3 4 5 3 1 3 6 8 17 18 19 15 15 16
15 16 17 17 17 15 17 17 5 4 3 4 1 2 3 1 3 1 6 4 5 3 0 3 3 1 2 1 3 3 2 3 3 3 5 5 3 5 5 15 18 18 17 15 14
15 16 16 17 17 14 15 4 7 7 3 4 3 3 1 1 1 5 2 8 4 5 3 2 2 4 3 4 5 4 3 2 3 2 2 8 7 3 6 16 18 17 16 16 16
16 17 17 18 18 16 3 2 2 2 2 2 3 4 4 4 1 4 4 6 4 2 3 2 5 7 3 3 3 3 3 3 4 3 1 2 2 11 1 8 13 10 10 15 17
16 19 18 19 20 6 2 3 5 4 7 2 5 6 6 2 2 4 9 4 3 4 3 4 6 5 4 6 6 5 5 3 4 4 5 7 5 5 5 4 9 10 10 16 14
19 20 20 20 17 2 3 3 4 1 3 3 4 4 1 5 2 6 9 4 3 4 4 5 3 7 4 5 6 5 8 6 1 6 0 1 5 7 8 5 7 8 13 16 18
19 18 20 26 2 4 1 2 6 4 2 2 2 2 4 1 2 2 6 2 2 4 7 2 3 4 5 5 7 6 9 5 9 8 2 3 4 8 12 12 13 14 14 14 19
19 19 17 8 6 3 3 6 3 3 2 2 2 3 3 3 5 3 3 2 4 4 4 4 5 4 3 4 10 2 7 9 7 3 2 7 5 3 13 15 20 18 19 16 18
19 18 15 1 2 5 6 4 3 3 1 1 1 1 2 1 2 3 3 3 2 3 1 4 1 4 1 4 8 14 10 9 6 2 5 5 8 6 11 24 23 19 20 23 20
20 18 8 2 2 2 4 2 2 3 2 1 1 2 1 2 3 2 6 6 3 3 0 2 4 3 4 9 10 3 7 3 5 4 5 1 7 13 15 20 21 18 22 22 21
22 18 4 5 3 3 2 2 3 1 2 1 2 2 2 4 3 2 5 6 4 2 2 3 5 10 9 4 6 12 7 6 7 4 1 3 9 6 6 18 15 13 16 18 21
19 0 2 3 10 4 2 3 4 4 1 1 2 3 2 2 1 2 2 2 0 5 4 4 4 3 8 6 7 7 9 1 2 1 4 5 6 14 7 11 15 15 17 18 17
4 3 2 2 8 3 2 3 3 3 1 2 3 2 1 0 2 2 1 1 0 1 3 2 5 1 4 5 5 5 8 5 3 5 5 4 6 7 6 10 11 13 18 21 16
2 1 5 2 3 1 4 4 5 6 4 5 4 3 2 1 1 2 2 2 2 1 2 0 3 2 3 8 9 7 6 3 2 3 5 5 2 2 11 14 14 13 16 20 16
3 2 3 2 3 1 3 4 2 3 3 4 3 2 3 2 1 2 2 2 1 2 2 2 4 5 5 2 6 5 6 12 9 10 3 4 5 8 10 10 13 15 18 17 17
3 3 3 3 5 4 2 3 3 3 3 5 5 2 2 4 3 4 2 2 1 1 1 3 2 6 4 5 3 2 4 4 6 2 10 9 6 7 11 4 10 14 16 15 15
2 2 1 1 1 3 4 3 3 3 3 3 3 4 4 3 0 3 4 1 2 1 4 5 4 6 9 1 2 1 7 7 4 8 9 11 11 9 10 8 1 7 11 11 13
1 1 3 3 5 5 3 1 3 2 3 5 3 6 6 5 3 4 3 2 2 2 3 4 6 4 4 1 6 3 8 7 1 4 7 4 6 8 9 7 5 2 6 10 12
2 2 1 3 2 6 6 6 11 6 5 5 6 11 9 6 8 6 6 3 2 2 2 1 3 3 4 7 5 5 5 5 3 4 8 6 4 5 9 3 2 6 8 11 10
1 1 3 1 2 3 5 6 7 3 7 6 11 8 8 7 7 2 4 5 1 2 2 2 3 4 6 4 2 6 9 7 1 5 4 5 6 7 5 3 3 3 5 7 8
Wind_Direction
351 347 347 340 335 329 329 327 327 329 325 321 322 319 324 326 319 168 242 219 170 234 169 132 148 149 119 78 59 45 73 110 87 143 109 145 119 129 97 139 115 43 145 130 141
346 348 343 340 333 328 324 320 319 322 323 322 318 321 325 333 300 248 249 224 216 166 148 148 149 152 103 94 112 14 91 88 57 49 33 176 149 151 152 159 100 101 108 132 149
349 344 340 335 332 327 322 315 316 315 318 318 319 319 322 321 263 81 351 199 182 191 54 115 144 122 97 105 141 205 102 145 85 83 34 327 183 174 168 186 184 152 149 153 159
350 346 338 334 332 330 324 319 312 311 312 311 317 321 317 262 136 29 301 162 158 150 96 132 129 111 124 147 164 301 118 147 160 138 71 269 195 176 181 224 158 155 155 158 167
349 345 338 335 332 328 322 315 311 303 303 306 314 325 294 263 288 11 103 125 113 116 90 128 139 142 133 120 178 223 133 150 158 177 201 274 196 134 191 138 140 147 160 167 174
349 345 338 334 332 329 318 314 308 300 291 299 311 317 278 159 28 95 119 107 116 106 121 138 158 139 106 101 99 95 122 125 165 181 196 252 195 227 177 147 146 157 170 174 183
348 343 339 333 332 325 316 314 307 292 280 282 301 311 262 46 76 113 114 96 138 140 141 179 69 198 167 140 356 144 107 106 58 145 158 304 214 200 161 163 155 168 176 181 191
345 341 336 334 331 324 325 319 301 274 254 249 259 242 260 136 140 170 149 102 73 85 82 118 186 91 300 3 103 207 155 179 42 161 20 51 247 133 167 169 173 175 183 190 198
337 335 334 332 324 326 330 319 308 181 183 156 211 304 93 169 231 117 177 141 116 93 43 112 179 93 122 154 134 37 158 120 162 321 136 194 149 328 356 201 186 181 188 193 196
336 333 333 328 322 328 322 298 114 127 176 200 236 221 222 66 117 108 159 151 118 122 120 129 116 151 111 202 213 147 150 205 168 117 68 186 181 348 358 203 198 192 191 193 198
337 334 332 327 323 328 278 190 249 147 183 302 317 282 296 309 196 84 161 155 126 148 169 78 198 202 149 184 140 140 154 213 93 145 227 208 261 215 86 238 209 196 207 202 204
340 339 333 328 327 337 238 66 92 77 307 237 247 270 269 286 127 111 164 146 170 119 142 158 201 177 172 155 164 162 164 184 116 125 231 215 231 187 173 240 210 171 208 222 208
340 337 336 332 325 281 337 107 87 67 259 295 209 236 241 180 168 164 181 152 137 148 167 183 121 150 169 156 171 213 226 192 145 154 266 198 255 215 196 226 228 200 212 225 209
336 335 341 328 259 335 280 84 316 203 345 24 192 153 145 187 118 168 199 166 124 154 160 194 135 199 191 205 207 230 223 188 142 176 207 203 280 214 210 196 211 204 210 213 215
334 333 336 329 310 242 76 330 131 215 125 359 153 121 137 224 128 141 162 122 162 150 213 150 189 197 213 226 198 259 162 153 148 150 226 192 253 228 190 215 222 213 212 207 217
326 326 331 172 236 259 329 316 212 244 142 86 131 201 190 26 84 115 161 84 60 150 227 250 159 224 245 38 204 133 111 105 117 173 252 221 216 223 193 213 223 219 221 210 204
317 318 298 274 262 353 323 210 216 225 358 30 33 344 94 27 120 152 164 168 199 191 197 259 223 166 164 111 139 174 173 192 219 213 250 153 207 261 218 217 215 210 216 213 194
316 313 203 216 288 299 228 178 215 175 238 347 13 102 70 9 70 108 139 183 195 160 217 273 199 184 172 215 190 191 238 214 236 227 157 165 237 251 268 219 213 219 210 202 192
316 193 227 255 219 275 159 205 210 194 211 227 164 84 51 36 42 122 41 186 194 195 231 205 242 173 192 154 179 168 217 217 189 221 257 202 264 267 244 213 200 205 201 193 190
321 318 280 39 166 213 154 243 225 235 207 182 163 182 158 352 165 157 163 104 154 65 228 153 281 79 131 172 191 256 127 177 216 251 256 233 266 264 238 201 205 209 196 199 187
308 266 16 136 203 153 205 229 231 234 224 189 173 162 240 257 111 122 158 150 186 75 141 211 262 117 166 209 210 171 199 192 278 236 273 296 298 331 291 212 189 203 201 199 186
337 212 45 206 156 339 195 200 249 231 172 212 138 142 179 153 151 153 169 245 57 342 269 65 290 271 285 118 278 249 259 225 227 204 246 299 298 356 327 232 196 198 205 186 177
356 304 71 290 193 194 213 236 249 225 210 181 173 155 136 177 175 196 226 124 138 272 327 152 246 273 233 159 181 163 51 355 309 293 236 270 268 24 28 55 204 201 207 204 188
289 197 140 200 334 192 178 211 238 210 242 206 144 125 143 169 79 191 226 214 336 257 35 188 222 260 276 290 325 80 37 13 249 251 244 246 291 348 7 7 331 203 222 207 196
274 47 349 189 207 194 201 166 201 257 211 186 159 209 172 172 187 217 220 271 137 356 139 225 244 210 270 215 112 36 25 23 347 310 265 35 308 335 330 322 327 207 183 177 180
319 334 341 285 287 191 182 213 230 229 219 211 220 188 185 176 206 214 175 210 214 149 155 195 228 204 230 244 40 297 326 32 323 342 282 295 281 325 316 274 161 166 186 180 180
356 253 279 274 182 203 196 205 201 173 238 231 206 148 184 218 184 77 93 104 35 281 162 195 183 205 247 208 5 310 250 285 196 257 273 319 12 340 313 40 36 132 179 161 163